Location: Pasadena, ca
(34.1243°N, 118.1037°W)
Time: 18:09:36
(UTC-08:00)

N. Korean satellite - Pass Details

Date: 18 November 2017
Orbit: 460 x 514 km, 97.2° (Epoch: 21 November)

Event Time Altitude Azimuth Distance (km) Brightness Sun altitude
Rises 18:53:18 0° 207° (SSW) 2,476 10.6 -26.1°
Reaches altitude 10° 18:56:09 10° 234° (SW) 1,613 10.0 -26.7°
Maximum altitude 18:57:58 14° 266° (W) 1,409 9.8 -27.0°
Drops below altitude 10° 18:59:49 10° 298° (WNW) 1,631 9.9 -27.4°
Sets 19:02:45 0° 326° (NW) 2,525 10.6 -28.0°
